FENGYUN 1C DEB, 30327

Orbit data source: Space-Track

FENGYUN 1C DEB, 30327 is space debris in SSO originally from a launch on Mon, 10 May 1999 UTC launched from the Taiyaun Space Center, China (TSC). Fengyun 1C debris stems from the Chinese weather satellite Fengyun-1C, which was intentionally destroyed by a Chinese anti-satellite missile in 2007. This event dramatically increased the amount of space debris, with thousands of trackable fragments posing hazards to satellites and human spaceflight. The Fengyun 1C debris cloud has become a focal point in discussions about space sustainability and the need for international regulations to prevent the creation of new debris.

Loading next visibility...
FENGYUN 1C DEB details
Identifier
30327, 1999-025AAN
Orbit
SSO
Last TLE update3 days ago
Origin
Flag of CNCASC (CN / PRC)
ManufacturerUnknown
MissionSpacecraft
Bus & MotorUnknown
MassUnknown
Launch date (UTC)
1999-05-10 (26 years ago)
Launch vehicleUnknown
Launch site
Taiyaun Space Center, China (TSC)
Object type
Payload
Rocket body
Debris
Shape & HBRUnknown
Radar Cross SectionSmall (<0.1 m²)

Expand to show TLE details & history

TLE from 3 days ago
0 FENGYUN 1C DEB
1 30327U 99025AAN 25023.21512462  .00011510  00000-0  55832-2 0  9998
2 30327  98.4568 293.8009 0125662 357.4959 157.6196 14.14430435918633
Epoch: 2025-01-23T05:09Z
Definitive object data (Epoch: 2025-01-23T05:09:46.767Z)
Latitude24.08649°
Longitude-82.64868°
Altitude931.266 km
Speed7.345 km/s
True Right ascension07h 50m 22s
True Declination23° 57' 42"
Sunlit
Object was in full shadow at TLE epoch
Visualization TLE readout
Latitude80.37136°
Longitude-23.30573°
Altitude879.383 km
Speed7.408 km/s
Apparent Right ascension09h 33m 44s
Apparent Declination27° 33' 49"
Sunlit
Object is in daylight
Visualization observer readout
Local Sidereal Time21:02:12
Azimuth352.458° N
Elevation-22.122°
Doppler factor1
Orbital elements
Apogee altitude932.126 km
Perigee altitude750.682 km
Semi-major axis7,219.541 km
Eccentricity0.0125662
Inclination98.4568°
RAAN293.8009°
Arg. of periapsis357.4959°
True anomaly158.16002°
Mean anomaly157.6196°
Eccentric anomaly157.89059°
Mean motion3.53817 °/min
BSTAR0.0055832
Orbital period101.75 mins
Loading maneuver chart data...
Loading historical data...
Loading historical data...
Loading historical data...
Loading historical data...
Loading historical data...
Loading historical data...
Loading historical data...

FENGYUN 1C DEB Visibility forecast

Observer location: undefined°, undefined

Span
Click to sort rows by Start time (UTC) header in descending order
Start Az.
Max El. time (UTC)
Max El. Az.
Max El.
End time (UTC)
End Az.
9 mins2025-01-26 06:01:13.867Z34.839° NE2025-01-26 06:06:13.867Z107.558° ESE30.429°2025-01-26 06:10:13.867Z158.378° S
9 mins2025-01-26 07:42:13.867Z347.55° N2025-01-26 07:46:13.867Z292.135° WNW28.474°2025-01-26 07:51:13.867Z231.958° WSW
8 mins2025-01-26 17:27:13.867Z140.415° SSE2025-01-26 17:30:13.867Z83.647° E38.285°2025-01-26 17:35:13.867Z357.563° N
5 mins2025-01-26 19:09:13.867Z238.727° WSW2025-01-26 19:11:13.867Z265.27° W16.506°2025-01-26 19:14:13.867Z303.789° NW
|